Find Starlink 11359

NORAD ID: 61884 Int'l Des: 2024-204 Owner: SPXS Country: US Constellation: starlink operational
LEOCIRCULAR

Current View

Loading 3D Globe...

About Starlink 11359

Starlink 11359 (NORAD 61884) is a starlink constellation satellite (v2 mini d2c) launched Nov 9, 2024 by SPXS of US. It operates in LEO, CIRCULAR orbit with a mass of 960.00 kg.

About Starlink 11359

Description loading...

Upcoming Passes

Passes for default location (London). Set your location on the main map for personalized predictions.

Altitude History

Loading altitude history...

Two-Line Element Set

1 61884U 24204L 26166.46980337 .00001688 00000-0 18797-4 0 9999
2 61884 53.1588 234.1259 0001210 85.9927 274.1229 15.69698602 92278
Epoch: Jun 15, 2026 • Age: 11 hours

Current Status

Altitude 359.8 km
Velocity 7.70 km/s
Sub-Earth Point 16.97°N, 154.76°E
Launch Date Nov 9, 2024
Age 1.5 years
Type internet

Technical Details

Classification Payload
Mass 960.00 kg
Dry Mass 910.00 kg
Total Mass 960.00 kg
Length 0.30 m
Diameter 4.10 m
Span 29.00 m
Shape Box + pan
Manufacturer SPXS
Bus Type Starlink V2MD
Phase Status In Orbit
Owner/State SPXS/US

Most Searched